Edwards AFB, CA

4:27 PM PDT on March 22, 2017 (GMT -0700)
Edwards Air Force Base

Weather History for KEDW - January, 2012

Change the Weather History Date:

Friday, January 6, 2012

  Actual Average Record
Temperature  
Mean Temperature 47 °F -  
Max Temperature 68 °F 57 °F 68 °F (2001)
Min Temperature 26 °F 30 °F 18 °F (2007)
Degree Days  
Heating Degree Days 18    
Moisture  
Dew Point 20 °F    
Average Humidity 38    
Maximum Humidity 64    
Minimum Humidity 15    
Precipitation  
Precipitation 0.00 in - - ()
Sea Level Pressure  
Sea Level Pressure 30.03 in    
Wind  
Wind Speed 3 mph (SW)    
Max Wind Speed 17 mph    
Max Gust Speed 24 mph    
Visibility 10 miles    
Events      
Averages and records for this station are not official NWS values.
T = Trace of Precipitation, MM = Missing Value Source: NWS Daily Summary

Daily Weather History Graph

Daily Weather History Graph

Search for Another Location

Airport or City:

Trip Planner

Search our weather history database for the weather conditions in past years. The results will help you decide how hot, cold, wet, or windy it might be!

Date:

Astronomy

Jan. 06, 2012 Rise Set
Actual Time 6:59 AM PST 4:54 PM PST
Civil Twilight 6:31 AM PST 5:22 PM PST
Nautical Twilight 6:00 AM PST 5:54 PM PST
Astronomical Twilight 5:29 AM PST 6:24 PM PST
Moon 2:50 PM PST (1/6) 4:43 AM PST (1/6)
Length of Visible Light 10h 50m
Length of Day
9h 55m
Waxing Gibbous, 94% of the Moon is Illuminated
Jan 6
Waxing Gibbous
Jan 8
Full
Jan 16
Last Quarter
Jan 22
New
Jan 30
First Quarter

Hourly Weather History & Observations

Time (PST) Temp. Windchill Dew Point Humidity Pressure Visibility Wind Dir Wind Speed Gust Speed Precip Events Conditions
12:55 AM 33.1 °F - 11.3 °F 40% 30.07 in 10.0 mi Calm Calm - N/A   Clear
1:55 AM 33.4 °F - 13.3 °F 43% 30.06 in 10.0 mi Calm Calm - N/A   Clear
2:55 AM 29.5 °F 22.5 °F 12.2 °F 49% 30.06 in 10.0 mi South 6.9 mph - N/A   Clear
3:55 AM 30.4 °F 23.6 °F 11.1 °F 45% 30.04 in 10.0 mi NNW 6.9 mph - N/A   Clear
4:55 AM 32.0 °F 27.5 °F 13.1 °F 46% 30.05 in 10.0 mi NNE 4.6 mph - N/A   Clear
5:55 AM 29.8 °F - 12.4 °F 48% 30.06 in 50.0 mi Calm Calm - N/A   Clear
6:55 AM 26.8 °F 22.8 °F 12.0 °F 54% 30.10 in 90.0 mi NW 3.5 mph - N/A   Partly Cloudy
7:55 AM 31.5 °F 26.8 °F 13.1 °F 47% 30.12 in 80.0 mi North 4.6 mph - N/A   Partly Cloudy
8:55 AM 39.4 °F - 16.3 °F 39% 30.13 in 90.0 mi Calm Calm - N/A   Partly Cloudy
9:55 AM 47.5 °F - 19.4 °F 33% 30.13 in 90.0 mi Calm Calm - N/A   Partly Cloudy
10:55 AM 55.2 °F - 22.1 °F 28% 30.10 in 90.0 mi Calm Calm - N/A   Partly Cloudy
11:55 AM 59.5 °F - 23.2 °F 25% 30.05 in 90.0 mi Calm Calm - N/A   Partly Cloudy
12:55 PM 62.8 °F - 22.6 °F 22% 30.02 in 90.0 mi Calm Calm - N/A   Partly Cloudy
1:55 PM 66.4 °F - 20.8 °F 18% 29.99 in 90.0 mi SSE 2.3 mph - N/A   Partly Cloudy
2:55 PM 68.0 °F - 18.3 °F 15% 29.98 in 90.0 mi Calm Calm - N/A   Partly Cloudy
3:55 PM 68.2 °F - 21.0 °F 17% 29.96 in 90.0 mi South 2.3 mph - N/A   Partly Cloudy
4:55 PM 62.2 °F - 21.7 °F 21% 29.97 in 90.0 mi West 8.1 mph - N/A   Partly Cloudy
5:55 PM 59.9 °F - 17.8 °F 19% 29.98 in 80.0 mi WSW 4.6 mph - N/A   Partly Cloudy
6:45 PM 59.0 °F - 32.0 °F 36% 29.97 in 40.0 mi West 13.8 mph 24.2 mph N/A   Partly Cloudy
6:55 PM 57.7 °F - 30.2 °F 35% 29.99 in 40.0 mi WSW 17.3 mph 23.0 mph N/A   Clear
7:55 PM 52.0 °F - 25.2 °F 35% 29.99 in 40.0 mi South 8.1 mph - N/A   Clear
8:55 PM 50.0 °F - 30.4 °F 47% 29.99 in 40.0 mi South 9.2 mph - N/A   Clear
9:55 PM 43.7 °F 39.1 °F 30.6 °F 60% 29.99 in 40.0 mi South 8.1 mph - N/A   Clear
10:55 PM 46.2 °F 41.2 °F 29.7 °F 53% 29.97 in 10.0 mi SSW 10.4 mph - N/A   Clear
11:55 PM 41.4 °F 36.2 °F 30.0 °F 64% 29.96 in 10.0 mi South 8.1 mph - N/A   Clear